Le nostre stazioni meteo in Italia

Pubblicità
Il mio iltempo24.it
Bournemouth Airport, Gran Bretagna (3862): Temperatura & dewpoint: 14.04.2018 19:00:00 - 20.04.2018 19:00:00 (BST)Bournemouth Airport, Gran Bretagna (3862): Temperatura -20cm & Temperatura -100cm: 14.04.2018 19:00:00 - 20.04.2018 19:00:00 (BST)Bournemouth Airport, Gran Bretagna (3862): velocità del vento & gusts: 14.04.2018 19:00:00 - 20.04.2018 19:00:00 (BST)Bournemouth Airport, Gran Bretagna (3862): direzione del vento: 14.04.2018 19:00:00 - 20.04.2018 19:00:00 (BST)Bournemouth Airport, Gran Bretagna (3862): reduced air pressure: 14.04.2018 19:00:00 - 20.04.2018 19:00:00 (BST)Bournemouth Airport, Gran Bretagna (3862): visibility: 14.04.2018 19:00:00 - 20.04.2018 19:00:00 (BST)Bournemouth Airport, Gran Bretagna (3862): ore di luce: 14.04.2018 19:00:00 - 20.04.2018 19:00:00 (BST)Bournemouth Airport, Gran Bretagna (3862): precipitazioni: 14.04.2018 19:00:00 - 20.04.2018 19:00:00 (BST)
Data & Tempo tt [°C] td [°C] tt -20cm [°C] tt -100cm [°C] ff [km/h] ff [kn] fx [km/h] fx [kn] dd ppp [hPa] vv [km] sd [min] rr [mm]
20.04.2018 19:00:00 22,0 14,0 - - 8 4 - - ONO - 10 - -
20.04.2018 18:00:00 23,0 14,3 - - 11 6 - - O 1022,3 10 60 0,0
20.04.2018 17:00:00 23,4 14,7 - - 13 7 - - O 1022,6 10 60 0,0
20.04.2018 16:00:00 22,9 14,2 - - 13 7 - - O 1023,0 10 60 0,0
20.04.2018 15:00:00 22,8 14,2 - - 13 7 - - O 1023,4 10 60 0,0
20.04.2018 14:00:00 22,0 13,5 - - 11 6 - - ONO 1023,6 10 60 0,0
20.04.2018 13:00:00 21,6 14,7 - - 5 3 - - - 1024,1 10 60 0,0
20.04.2018 12:00:00 19,9 13,1 - - 11 6 - - NNO 1024,2 10 60 0,0
20.04.2018 11:00:00 18,5 13,5 - - 9 5 - - NNO 1024,3 10 60 0,0
20.04.2018 10:00:00 15,7 12,4 12,5 9,7 13 7 - - NNO 1024,2 10 60 0,0
20.04.2018 09:00:00 13,1 11,6 - - 11 6 - - NO 1024,2 10 60 0,0
20.04.2018 08:00:00 10,4 10,3 - - 9 5 - - NO 1024,0 8 24 0,0
20.04.2018 07:00:00 8,1 7,9 - - 11 6 - - ONO 1023,7 3,0 6 0,0
20.04.2018 06:00:00 7,4 7,1 - - 9 5 - - ONO 1023,5 7 0 0,0
20.04.2018 05:00:00 7,4 7,1 - - 8 4 - - NO 1023,2 7 0 0,0
20.04.2018 04:00:00 8,3 7,9 - - 5 3 - - ONO 1023,3 8 0 0,0
20.04.2018 03:00:00 7,7 7,1 - - 8 4 - - ONO 1023,4 10 0 0,0
20.04.2018 02:00:00 8,9 8,3 - - 8 4 - - ONO 1023,6 12 0 0,0
20.04.2018 01:00:00 9,7 8,9 - - 5 3 - - NO 1023,6 15 - 0,0
20.04.2018 00:00:00 10,3 8,5 - - 8 4 - - O 1023,6 17 0 0,0
19.04.2018 23:00:00 12,0 9,8 - - 5 3 - - ONO 1023,5 19 0 0,0
19.04.2018 22:00:00 13,2 10,2 - - 5 3 - - ONO 1023,6 10 0 0,0
19.04.2018 21:00:00 15,0 10,7 - - 8 4 - - ONO 1023,5 10 0 0,0
19.04.2018 20:00:00 16,9 10,3 - - 2 1 - - SSE 1023,1 10 54 0,0
19.04.2018 19:00:00 19,6 11,0 - - 9 5 - - SSE 1023,0 10 60 0,0
19.04.2018 18:00:00 19,5 11,0 - - 9 5 - - S 1023,0 10 60 0,0
19.04.2018 17:00:00 19,2 10,9 - - 15 8 - - S 1023,0 10 60 0,0
19.04.2018 16:00:00 22,0 12,0 - - 15 8 - - S 1022,8 10 60 0,0
19.04.2018 15:00:00 23,0 11,1 - - 11 6 - - SSE 1023,0 10 60 0,0
19.04.2018 14:00:00 23,9 11,8 - - 13 7 - - S 1023,0 10 60 0,0
19.04.2018 13:00:00 23,1 11,7 - - 13 7 - - SSE 1023,3 10 60 0,0
19.04.2018 12:00:00 21,7 12,3 - - 4 2 - - - 1023,6 10 60 0,0
19.04.2018 11:00:00 18,7 10,8 - - 5 3 - - - 1023,6 10 60 0,0
19.04.2018 10:00:00 17,5 10,6 11,7 9,4 5 3 - - - 1023,5 10 60 0,0
19.04.2018 09:00:00 16,0 11,2 - - 2 1 - - SSE 1023,4 13 60 -
19.04.2018 08:00:00 12,0 10,3 - - 4 2 - - N 1023,3 10 60 -
19.04.2018 07:00:00 9,9 9,4 - - 5 3 - - E 1022,6 10 18 -
19.04.2018 06:00:00 7,8 6,7 - - 4 2 - - E 1022,6 10 0 -
19.04.2018 05:00:00 7,9 5,9 - - 5 3 - - ENE 1022,6 14 0 -
19.04.2018 04:00:00 10,0 8,0 - - 8 4 - - O 1022,7 14 0 -
19.04.2018 03:00:00 13,1 9,4 - - 8 4 - - S 1022,6 17 0 -
19.04.2018 02:00:00 15,0 9,7 - - 13 7 - - SSE 1022,9 18 0 0,0
19.04.2018 01:00:00 14,4 9,1 - - 11 6 - - S 1023,3 17 - 0,0
19.04.2018 00:00:00 17,0 9,4 - - 21 11 - - SSE 1023,4 10 0 0,0
18.04.2018 23:00:00 16,8 9,5 - - 16 9 - - SE 1023,3 10 0 0,0
18.04.2018 22:00:00 16,0 9,0 - - 15 8 - - ESE 1023,5 10 0 0,0
18.04.2018 21:00:00 16,3 8,8 - - 9 5 - - ESE 1023,4 10 0 0,0
18.04.2018 20:00:00 18,2 9,0 - - 16 9 - - ESE 1023,2 10 48 0,0
18.04.2018 19:00:00 20,2 9,6 - - 18 10 - - ESE 1023,7 10 60 0,0
18.04.2018 18:00:00 20,8 10,3 - - 18 10 - - ESE 1024,4 10 60 0,0
18.04.2018 17:00:00 21,2 10,1 - - 24 13 - - SE 1024,7 10 60 0,0
18.04.2018 16:00:00 21,0 10,1 - - 28 15 - - ESE 1024,9 10 60 0,0
18.04.2018 15:00:00 20,7 11,8 - - 28 15 - - SE 1025,5 10 60 0,0
18.04.2018 14:00:00 19,8 12,2 - - 18 10 - - SE 1026,0 10 60 0,0
18.04.2018 13:00:00 18,5 12,2 - - 22 12 - - SSE 1026,7 10 60 0,0
18.04.2018 12:00:00 17,7 11,0 - - 18 10 - - S 1026,9 10 60 0,0
18.04.2018 11:00:00 17,3 11,5 - - 15 8 - - SSE 1027,3 10 60 0,0
18.04.2018 10:00:00 16,5 11,2 11,0 9,2 11 6 - - SE 1027,4 10 60 0,0
18.04.2018 09:00:00 15,0 10,9 - - 8 4 - - SE 1027,1 10 60 0,0
18.04.2018 08:00:00 12,3 10,2 - - 8 4 - - E 1026,9 10 60 0,0
18.04.2018 07:00:00 10,5 9,1 - - 5 3 - - - 1026,5 10 6 0,0
18.04.2018 06:00:00 10,6 8,9 - - 9 5 - - SSE 1026,4 10 0 0,0
18.04.2018 05:00:00 11,5 9,5 - - 11 6 - - S 1026,0 15 0 0,0
18.04.2018 04:00:00 12,2 9,9 - - 18 10 - - SSO 1025,6 16 0 0,0
18.04.2018 03:00:00 12,3 9,6 - - 18 10 - - S 1025,1 15 0 0,0
18.04.2018 02:00:00 13,1 10,3 - - 16 9 - - SSO 1025,0 16 0 0,0
18.04.2018 01:00:00 13,1 10,1 - - 16 9 - - S 1024,6 15 - 0,0
18.04.2018 00:00:00 13,3 10,4 - - 15 8 - - SSO 1024,2 17 0 0,0
17.04.2018 23:00:00 12,8 10,1 - - 13 7 - - SSO 1023,8 17 0 0,0
17.04.2018 22:00:00 12,6 9,8 - - 16 9 - - S 1023,5 10 0 0,0
17.04.2018 21:00:00 13,1 10,4 - - 13 7 - - SSO 1022,9 10 0 0,0
17.04.2018 20:00:00 12,6 10,2 - - 9 5 - - S 1022,4 10 0 0,2
17.04.2018 19:00:00 12,2 10,6 - - 9 5 - - S 1021,9 11 0 0,0
17.04.2018 18:00:00 13,4 9,8 - - 13 7 - - SSO 1021,3 10 0 0,0
17.04.2018 17:00:00 13,3 9,7 - - 21 11 - - S 1020,8 10 0 0,0
17.04.2018 16:00:00 13,2 9,5 - - 21 11 - - S 1020,7 10 0 0,0
17.04.2018 15:00:00 13,6 9,4 - - 24 13 - - S 1020,5 10 0 0,0
17.04.2018 14:00:00 14,0 9,2 - - 28 15 50 27 SSO 1020,0 10 6 0,0
17.04.2018 13:00:00 13,4 9,2 - - 28 15 - - S 1019,8 10 0 0,0
17.04.2018 12:00:00 13,3 8,7 - - 34 18 52 28 S 1019,4 10 60 0,0
17.04.2018 11:00:00 12,9 8,9 - - 29 16 52 28 S 1018,8 10 18 0,0
17.04.2018 10:00:00 11,4 7,7 10,7 9,0 22 12 46 25 S 1018,5 10 0 0,0
17.04.2018 09:00:00 11,2 7,5 - - 24 13 - - S 1018,0 10 0 0,0
17.04.2018 08:00:00 10,6 7,1 - - 26 14 - - SSE 1017,8 10 0 0,0
17.04.2018 07:00:00 10,4 7,4 - - 22 12 - - S 1017,1 10 0 0,0
17.04.2018 06:00:00 9,8 7,6 - - 22 12 - - SSE 1016,8 14 0 0,0
17.04.2018 05:00:00 9,9 7,6 - - 24 13 - - S 1016,8 14 0 0,0
17.04.2018 04:00:00 9,9 7,7 - - 21 11 - - S 1016,7 14 0 0,0
17.04.2018 03:00:00 10,0 7,7 - - 22 12 - - S 1016,9 15 0 0,0
17.04.2018 02:00:00 10,2 7,4 - - 16 9 - - S 1017,0 16 0 0,0
17.04.2018 01:00:00 10,4 7,2 - - 24 13 - - S 1016,3 17 - 0,0
17.04.2018 00:00:00 10,2 7,4 - - 15 8 - - S 1016,5 17 0 0,0
16.04.2018 23:00:00 10,8 7,3 - - 18 10 - - SSO 1016,5 10 0 0,0
16.04.2018 22:00:00 10,2 7,3 - - 15 8 - - S 1016,5 10 0 0,0
16.04.2018 21:00:00 10,4 6,4 - - 13 7 - - S 1016,3 10 0 0,0
16.04.2018 20:00:00 11,0 5,4 - - 16 9 - - S 1016,1 10 0 0,0
16.04.2018 19:00:00 11,8 5,1 - - 15 8 - - S 1015,8 10 0 0,0
16.04.2018 18:00:00 11,5 6,7 - - 16 9 - - S 1015,8 10 0 0,0
16.04.2018 17:00:00 12,0 7,8 - - 21 11 - - SSO 1015,8 10 42 0,0
16.04.2018 16:00:00 13,4 8,0 - - 22 12 - - SSO 1015,6 10 54 0,0
16.04.2018 15:00:00 12,6 5,7 - - 24 13 - - S 1015,4 10 54 0,0
16.04.2018 14:00:00 13,0 6,8 - - 26 14 - - OSO 1015,3 10 30 0,0
16.04.2018 13:00:00 12,6 7,5 - - 26 14 - - OSO 1015,2 10 36 0,0
16.04.2018 12:00:00 12,2 7,3 - - 24 13 - - OSO 1014,5 10 18 0,0
16.04.2018 11:00:00 12,1 7,7 - - 21 11 - - SO 1014,4 10 48 0,0
16.04.2018 10:00:00 11,5 6,9 10,4 9,0 21 11 - - OSO 1013,8 10 24 0,0
16.04.2018 09:00:00 10,7 8,2 - - 16 9 - - SO 1013,4 10 36 0,0
16.04.2018 08:00:00 9,8 8,3 - - 16 9 - - SO 1012,5 10 54 0,0
16.04.2018 07:00:00 8,1 7,2 - - 13 7 - - SO 1011,8 10 0 0,0
16.04.2018 06:00:00 7,8 6,9 - - 9 5 - - SO 1011,3 10 0 0,0
16.04.2018 05:00:00 7,9 6,8 - - 13 7 - - SO 1010,9 13 0 0,0
16.04.2018 04:00:00 8,6 7,4 - - 11 6 - - SO 1010,3 11 0 0,0
16.04.2018 03:00:00 8,7 7,5 - - 15 8 - - SO 1010,0 11 0 0,0
16.04.2018 02:00:00 9,1 7,9 - - 13 7 - - OSO 1009,6 11 0 0,0
16.04.2018 01:00:00 9,3 7,8 - - 16 9 - - OSO 1009,2 12 - 0,0
16.04.2018 00:00:00 10,0 8,2 - - 18 10 - - OSO 1008,7 13 0 0,0
15.04.2018 23:00:00 10,2 8,6 - - 16 9 - - SO 1008,4 10 0 0,0
15.04.2018 22:00:00 10,2 8,4 - - 18 10 - - SO 1008,0 10 0 0,0
15.04.2018 21:00:00 10,6 8,9 - - 16 9 - - SO 1007,7 10 0 0,0
15.04.2018 20:00:00 10,8 8,9 - - 21 11 - - SO 1007,0 10 0 0,0
15.04.2018 19:00:00 10,9 9,0 - - 21 11 - - SSO 1006,6 10 0 0,0
15.04.2018 18:00:00 11,8 9,7 - - 18 10 - - SSO 1006,3 10 12 0,0
15.04.2018 17:00:00 11,7 11,1 - - 13 7 - - SSO 1006,4 10 6 0,0
15.04.2018 16:00:00 10,5 9,7 - - 16 9 - - S 1006,6 6 0 0,2
15.04.2018 15:00:00 10,4 9,7 - - 22 12 - - SSE 1006,9 4,5 0 0,2
15.04.2018 14:00:00 9,7 9,1 - - 22 12 - - SSE 1007,2 3,5 0 1,4
15.04.2018 13:00:00 10,0 9,3 - - 21 11 - - SE 1007,9 2,0 0 1,2
15.04.2018 12:00:00 10,6 9,1 - - 21 11 - - SSE 1008,3 7 0 0,0
15.04.2018 11:00:00 10,9 9,1 - - 18 10 - - SE 1008,6 7 0 0,0
15.04.2018 10:00:00 10,5 8,7 10,5 8,9 15 8 - - SSE 1009,1 6 0 0,0
15.04.2018 09:00:00 10,0 8,5 - - 15 8 - - SSE 1009,7 7 0 0,0
15.04.2018 08:00:00 9,4 8,6 - - 11 6 - - S 1010,0 5 0 0,0
15.04.2018 07:00:00 9,5 8,8 - - 9 5 - - SSE 1010,0 4,0 0 0,0
15.04.2018 06:00:00 9,7 9,4 - - 13 7 - - SE 1010,0 4,0 0 0,0
15.04.2018 05:00:00 9,4 9,3 - - 11 6 - - SE 1010,6 3,8 0 0,0
15.04.2018 04:00:00 6,8 6,6 - - 2 1 - - E 1011,1 1,8 0 0,0
15.04.2018 03:00:00 7,7 7,5 - - 8 4 - - E 1011,6 0,7 0 0,0
15.04.2018 02:00:00 5,8 5,5 - - 5 3 - - NE 1012,3 2,1 0 0,0
15.04.2018 01:00:00 5,9 5,3 - - 8 4 - - ESE 1012,8 2,5 - 0,0
15.04.2018 00:00:00 6,2 5,6 - - 2 1 - - ESE 1013,6 4,0 0 0,0
14.04.2018 23:00:00 7,1 6,2 - - 2 1 - - ENE 1013,8 2,5 0 0,0
14.04.2018 22:00:00 9,0 7,9 - - 4 2 - - ESE 1014,3 3,0 0 0,0
14.04.2018 21:00:00 9,1 7,8 - - 4 2 - - SSO 1014,9 4,0 0 0,0
14.04.2018 20:00:00 10,3 7,9 - - 16 9 - - S 1014,8 5 30 0,0
14.04.2018 19:00:00 11,6 7,7 - - 11 6 - - SSE 1014,6 10 60 0,0

tt = Temperatura
td = dewpoint
tt -20cm = Temperatura -20cm
tt -100cm = Temperatura -100cm
ff = velocità del vento
fx = gusts
dd = direzione del vento
ppp = reduced air pressure
vv = visibility
sd = ore di luce
rr = precipitazioni

Stazioni seguenti

WeatherPro
AMSI
MeteoEarth